Meadville, PA

7:24 PM EST on December 15, 2019 (GMT -0500)
Port Meadville

Weather History for KGKJ - October, 2019

Change the Weather History Date:

Friday, October 25, 2019

  Actual Average Record
Temperature  
Mean Temperature 50 °F -  
Max Temperature 54 °F 59 °F 80 °F (1963)
Min Temperature 45 °F 37 °F 22 °F (1969)
Degree Days  
Heating Degree Days 16    
Moisture  
Dew Point 43 °F    
Average Humidity 82    
Maximum Humidity 93    
Minimum Humidity 69    
Precipitation  
Precipitation 0.00 in - - ()
Sea Level Pressure  
Sea Level Pressure 30.25 in    
Wind  
Wind Speed 3 mph ()    
Max Wind Speed 7 mph    
Max Gust Speed -    
Visibility 10.0 miles    
Events      
Averages and records for this station are not official NWS values.
T = Trace of Precipitation, MM = Missing Value Source: Averaged Metar Reports

Daily Weather History Graph

Daily Weather History Graph

Search for Another Location

Airport or City:

Astronomy

Oct. 25, 2019 Rise Set
Actual Time 7:44 AM EDT 6:25 PM EDT
Civil Twilight 7:15 AM EDT 6:53 PM EDT
Nautical Twilight 6:43 AM EDT 7:25 PM EDT
Astronomical Twilight 6:11 AM EDT 7:58 PM EDT
Moon 4:20 AM EDT (10/25) 5:29 PM EDT (10/25)
Length of Visible Light 11h 37m
Length of Day
10h 40m
Waning Crescent, 9% of the Moon is Illuminated
Oct 25
Waning Crescent
Oct 27
New
Nov 4
First Quarter
Nov 12
Full
Nov 19
Last Quarter

Hourly Weather History & Observations

Time (EDT) Temp. Windchill Dew Point Humidity Pressure Visibility Wind Dir Wind Speed Gust Speed Precip Events Conditions
12:53 AM 46.0 °F 43.1 °F 42.1 °F 86% 30.29 in 10.0 mi NE 5.8 mph - N/A   Overcast
1:53 AM 46.0 °F 43.9 °F 42.1 °F 86% 30.29 in 10.0 mi NNE 4.6 mph - N/A   Overcast
2:53 AM 45.0 °F 41.2 °F 42.1 °F 90% 30.29 in 10.0 mi NE 6.9 mph - N/A   Overcast
3:53 AM 46.0 °F 43.1 °F 41.0 °F 83% 30.30 in 10.0 mi NNE 5.8 mph - N/A   Overcast
4:53 AM 45.0 °F 41.2 °F 41.0 °F 86% 30.28 in 10.0 mi NE 6.9 mph - N/A   Overcast
5:53 AM 45.0 °F 42.6 °F 41.0 °F 86% 30.28 in 10.0 mi NE 4.6 mph - N/A   Overcast
6:53 AM 45.0 °F 42.6 °F 39.9 °F 82% 30.31 in 10.0 mi NNE 4.6 mph - N/A   Overcast
7:53 AM 45.0 °F 43.5 °F 41.0 °F 86% 30.32 in 10.0 mi NE 3.5 mph - 0.00 in   Overcast
8:53 AM 45.0 °F - 41.0 °F 86% 30.29 in 10.0 mi Calm Calm - 0.00 in   Overcast
9:53 AM 46.0 °F - 42.1 °F 86% 30.29 in 10.0 mi Calm Calm - N/A   Overcast
10:53 AM 48.9 °F - 43.0 °F 80% 30.27 in 10.0 mi Variable 3.5 mph - N/A   Overcast
11:53 AM 50.0 °F - 43.0 °F 77% 30.26 in 10.0 mi Calm Calm - N/A   Overcast
12:53 PM 54.0 °F - 44.1 °F 69% 30.25 in 10.0 mi SSW 4.6 mph - N/A   Overcast
1:53 PM 54.0 °F - 44.1 °F 69% 30.23 in 10.0 mi SSW 3.5 mph - N/A   Overcast
2:53 PM 54.0 °F - 45.0 °F 72% 30.22 in 10.0 mi WNW 4.6 mph - N/A   Overcast
3:53 PM 54.0 °F - 44.1 °F 69% 30.22 in 10.0 mi WNW 4.6 mph - N/A   Overcast
4:37 PM 52.0 °F - 45.0 °F 77% 30.20 in 10.0 mi North 6.9 mph - N/A   Overcast
4:53 PM 51.1 °F - 45.0 °F 80% 30.22 in 10.0 mi NNE 4.6 mph - N/A   Overcast
5:53 PM 50.0 °F - 44.1 °F 80% 30.22 in 10.0 mi NNW 4.6 mph - N/A   Overcast
6:18 PM 50.0 °F - 44.1 °F 80% 30.20 in 10.0 mi Calm Calm - N/A   Overcast
6:51 PM 50.0 °F - 44.6 °F 82% 30.20 in 10.0 mi NE 3.5 mph - N/A   Overcast
6:53 PM 50.0 °F - 44.1 °F 80% 30.22 in 10.0 mi Calm Calm - N/A   Overcast
7:53 PM 48.9 °F - 44.1 °F 83% 30.24 in 10.0 mi Calm Calm - N/A   Overcast
8:03 PM 48.9 °F - 44.1 °F 83% 30.22 in 10.0 mi Calm Calm - N/A   Overcast
8:14 PM 48.9 °F - 44.1 °F 83% 30.22 in 10.0 mi Calm Calm - N/A   Overcast
8:48 PM 48.2 °F - 44.6 °F 87% 30.22 in 10.0 mi SW 3.5 mph - N/A   Overcast
8:53 PM 48.9 °F - 44.1 °F 83% 30.24 in 10.0 mi SW 3.5 mph - N/A   Overcast
9:06 PM 48.9 °F - 44.1 °F 83% 30.22 in 10.0 mi Calm Calm - N/A   Overcast
9:53 PM 48.0 °F - 44.1 °F 86% 30.24 in 10.0 mi SSW 4.6 mph - N/A   Mostly Cloudy
10:53 PM 46.0 °F 44.8 °F 44.1 °F 93% 30.25 in 10.0 mi SSW 3.5 mph - N/A   Clear
11:53 PM 46.0 °F 44.8 °F 43.0 °F 89% 30.24 in 10.0 mi SW 3.5 mph - N/A   Clear